Location: Chervonnoye
(48.6000°N, 34.4000°E)
Time: 06:14:38
(UTC+00:00)

USA 215 - Pass Details

Date: 23 November 2020
Orbit: 1098 x 1110 km, 123.0° (Epoch: 14 January)

Event Time Altitude Azimuth Distance (km) Brightness Sun altitude
Exits shadow 17:32:16 52° 332° (NNW) 1,361 3.8 -35.5°
Drops below altitude 10° 17:38:14 10° 269° (W) 2,975 6.3 -36.5°
Sets 17:40:47 0° 265° (W) 3,932 7.1 -36.9°
